Home > Weather > Knox > Past weeks

Flag for U.S.A. Weather for the Past 2 Weeks in Knox, Indiana, U.S.A.

Now
28 °F

Clear.


Feels Like: 28 °F
Forecast: 27 / 34 °F
Wind: No wind

Location: Porter County Municipal Airport

Current Time: Feb 8, 2016 at 4:33:39 AM

Latest Report: Feb 8, 2016 at 3:56 AM


Visibility: N/A

Pressure: 29.66 "Hg

Humidity: 85%

Dew point: 24 °F

Location of KnoxLocation

Historic Weather in Knox — Graph

°F

Knox Temperature Yesterday

Maximum temperature yesterday: 47 °F (at 11:56 AM)
Minimum temperature yesterday: 32 °F (at 12:56 AM)
Average temperature yesterday: 39 °F

High & Low Weather Summary for the Past Weeks

 TemperatureHumidityPressure
High55 °F (Jan 31, 1:56 PM)100% (Feb 2, 10:56 PM)30.40 "Hg (Feb 2, 10:56 PM)
Low19 °F (Feb 6, 5:56 AM)49% (Feb 4, 2:56 PM)29.46 "Hg (Feb 2, 9:56 PM)
Average34 °F77%29.95 "Hg
* Reported Jan 24 2:56 AM — Feb 8 2:56 AM, Knox, Weather by CustomWeather, © 2016

Note: Actual official high and low records may vary slightly from our data, if they occured in-between our weather recording intervals... More about our weather records

Advertising

Knox Weather History for the Previous 24 Hours

 ConditionsComfort  
Time TempWeatherWind HumidityBarometerVisibility
2:56 AM
Mon, Feb 8
28 °FClear.No wind93%29.67 "HgN/A
1:56 AM30 °FClear.5 mph82%29.68 "HgN/A
12:56 AM32 °FClear.7 mph79%29.70 "HgN/A
11:56 PM
Sun, Feb 7
34 °FClear.12 mph76%29.72 "HgN/A
10:56 PM34 °FClear.10 mph76%29.74 "HgN/A
9:56 PM35 °FClear.10 mph72%29.75 "HgN/A
8:56 PM37 °FClear.14 mph70%29.77 "HgN/A
7:56 PM38 °FClear.13 mph76%29.78 "HgN/A
6:56 PM39 °FClear.12 mph76%29.78 "HgN/A
5:56 PM41 °FClear.15 mph70%29.79 "HgN/A
4:56 PM43 °FClear.14 mph65%29.78 "HgN/A
3:56 PM45 °FScattered clouds.18 mph63%29.78 "HgN/A
2:56 PM46 °FOvercast.15 mph61%29.77 "HgN/A
1:56 PM46 °FPartly sunny.22 mph58%29.77 "HgN/A
12:56 PM46 °FSunny.22 mph56%29.78 "HgN/A
11:56 AM47 °FSunny.22 mph52%29.81 "HgN/A
10:56 AM45 °FSunny.23 mph53%29.85 "HgN/A
9:56 AM41 °FSunny.14 mph65%29.87 "HgN/A
8:56 AM39 °FSunny.14 mph67%29.88 "HgN/A
7:56 AM37 °FPassing clouds.14 mph73%29.91 "HgN/A
6:56 AM36 °FSunny.12 mph75%29.93 "HgN/A
5:56 AM36 °FScattered clouds.10 mph75%29.96 "HgN/A
4:56 AM35 °FClear.7 mph78%29.97 "HgN/A
Weather by CustomWeather, © 2016

See weather overviewHow to use our weather pages